655  
ASUS46 KLOX 190113  
RWRCA  
 
SOUTHERN CALIFORNIA WEATHER ROUNDUP  
NATIONAL WEATHER SERVICE OXNARD CALIFORNIA  
500 PM PST SUN FEB 18 2018  
 
NOTE: "FAIR" INDICATES FEW OR NO CLOUDS BELOW 12,000 FEET WITH NO  
SIGNIFICANT WEATHER AND/OR S TO VISIBILITY
.  
 
- STATIONS PRECEEDED BY AN ASTERISK (*) ARE NOT NWS OR FAA  
STATIONS AND ARE NOT SUBJECT TO NWS AND FAA QUALITY CONTROL.
 
 
CAZ041-042-087-190200-  
LA AND ORANGE COUNTY COASTAL AREAS  
 
 
CITY SKY/WX TMP DP RH WIND PRES REMARKS
 
L.A. DOWNTOWN CLEAR 61 49 64 CALM 29.89S  
L.A. AIRPORT PTCLDY 60 50 69 SW15 29.90S  
LONG BEACH CLEAR 62 51 67 SW8 29.90R  
 
CITY SKY/WX TMP DP RH WIND PRES REMARKS
 
AVALON N/A 59 N/A N/A MISG N/A  
FULLERTON PTCLDY 61 50 67 SW8 29.89S  
*GETTY CENTER N/A 54 46 76 SW10 N/A  
HAWTHORNE PTCLDY 60 50 69 W13 29.90S  
*LEO CARRILLO N/A 59 49 68 SW6 N/A  
*LOS ALAMITOS FAIR 60 51 72 SW12 29.89S  
*REDONDO BEACH N/A 59 49 69 CALM 29.88F  
SANTA ANA PTCLDY 61 51 70 S10 29.90F  
STA MONICA APT PTCLDY 58 50 75 SW9 29.89F  
TORRANCE PTCLDY 59 50 72 SW9 29.90R  
*UCLA N/A 57 46 67 SW12 29.86S  
 

 
 
CAZ547-548-048-190200-  
LA COUNTY VALLEYS AND INLAND EMPIRE  
 
 
CITY SKY/WX TMP DP RH WIND PRES REMARKS
 
BURBANK CLEAR 59 49 69 S9 29.87S  
VAN NUYS CLEAR 60 39 45 SE10 29.87S  
 
CITY SKY/WX TMP DP RH WIND PRES REMARKS
 
CORONA AIRPORT CLEAR 63 41 44 W10G17 29.87S  
*CHATSWORTH N/A 61 40 46 W2 29.86S  
CHINO PTCLDY 63 41 44 SW16 29.89S  
*CLAREMONT N/A 60 33 36 SW7 N/A  
MARCH AFB CLEAR 62 34 35 CALM 29.87S  
*NORTHRIDGE N/A 61 30 31 S6 N/A  
ONTARIO PTCLDY 62 36 37 SW13G23 29.87S  
*PASADENA N/A 59 50 72 CALM N/A  
POMONA CLEAR 61 32 33 SW12 29.91S  
RIVERSIDE CLEAR 63 39 41 W14 29.86S  
SAN BERNARDINO PTCLDY 64 28 25 SW13 29.87S  
*SAN RAFAEL HI N/A 57 46 67 SW9 N/A  
*SAUGUS N/A 60 41 50 SW14G28 N/A  
*WHITEMAN AP CLEAR 59 41 51 SE9 29.91R  
*WHITTIER HILL N/A 60 45 57 S9 N/A  
*WOODLAND HILL N/A 59 39 47 S6 N/A  
 

 
 
CAZ054-055-190200-  
LA AND SAN BERNARDINO COUNTY MOUNTAINS  
 
 
CITY SKY/WX TMP DP RH WIND PRES REMARKS
 
*ACTON N/A 57 33 40 SW12G23 N/A  
*BIG BEAR AIRP N/A 37 30 75 SW9G17 29.87S WCI 31  
*BIG PINES N/A 36 27 69 SW5 N/A WCI 32  
*CHILAO N/A 43 34 69 SE17 N/A  
SANDBERG CLEAR 47 34 60 SW10G18 29.86F  
*WARM SPRINGS N/A 50 32 49 SW3 N/A  
 

 
 
CAZ028-029-059-060-099-190200-  
ANTELOPE VALLEY AND SURROUNDING AREAS  
 
 
CITY SKY/WX TMP DP RH WIND PRES REMARKS
 
LANCASTER CLEAR 57 32 38 SW24G35 29.81S  
PALMDALE CLEAR 58 32 37 SW21G32 29.80  
*POPPY PARK N/A 55 30 38 SW22 N/A  
 
CITY SKY/WX TMP DP RH WIND PRES REMARKS
 
29 PALMS CLEAR 64 33 31 SW25 29.77F  
BARSTOW/DAGGET CLEAR 66 33 29 SW28G38 29.69F  
BISHOP PTCLDY 57 -1 9 NW17G28 29.56F  
CHINA LAKE PTCLDY 63 20 19 SW32G48 29.64F HAZE  
EDWARDS AFB CLEAR 60 30 33 SW26G35 29.75F  
MOJAVE CLEAR 59 27 29 W21G33 29.77F  
NEEDLES CLEAR 76 24 14 SW20G30 29.66F  
VICTORVILLE CLEAR 61 28 29 S17 29.79F  
 

 
 
CAZ039-040-190200-  
VENTURA AND SANTA BARBARA COUNTY COAST  
 
 
CITY SKY/WX TMP DP RH WIND PRES REMARKS
 
CAMARILLO CLEAR 61 46 57 SW8 29.89S  
OXNARD AIRPORT CLEAR 60 49 66 W6 29.89S  
*POINT MUGU PTCLDY 60 51 72 W9 29.90F  
SBA APT/GOLETA CLEAR 62 46 55 W13 29.86F  
*SANTA BARBARA N/A 65 47 52 CALM 29.93F  
*VENTURA N/A 59 49 68 W1 29.84F  
 

 
 
CAZ044-045-190200-  
VENTURA COUNTY VALLEYS  
 
 
CITY SKY/WX TMP DP RH WIND PRES REMARKS
 
*SIMI VALLEY N/A 58 47 66 W6 29.85S  
*WESTLAKE VILL N/A 58 43 57 CALM 29.87S  
*OJAI N/A 57 46 66 CALM 29.84S  
*FILLMORE N/A 57 48 71 SW5 29.91F  
 

 
 
CAZ053-190200-  
VENTURA COUNTY MOUNTAINS  
 
 
CITY SKY/WX TMP DP RH WIND PRES REMARKS
 
*LOCKWOOD VLY N/A 46 23 39 MISG N/A  
*FRAZIER MTN N/A 35 12 38 CALM 29.59F  
 

 
 
CAZ034-035-036-190200-  
CENTRAL COAST AND SANTA YNEZ VALLEY  
 
 
CITY SKY/WX TMP DP RH WIND PRES REMARKS
 
SAN LUIS OBISP MOCLDY 55 43 63 NW21 29.93S  
SANTA MARIA PTCLDY 55 44 66 NW23G29 29.94F  
 
CITY SKY/WX TMP DP RH WIND PRES REMARKS
 
*LOMPOC CLOUDY 55 44 66 NW15G22 29.96S  
*PISMO BEACH N/A 57 46 68 W3 29.93F  
*SANTA YNEZ FAIR 54 43 66 W12 29.92S  
 

 
 
CAZ037-038-051-190200-  
SAN LUIS OBISPO COUNTY INTERIOR AND CUYAMA VALLEY  
 
 
CITY SKY/WX TMP DP RH WIND PRES REMARKS
 
PASO ROBLES CLEAR 58 31 35 NW21 29.88S  
 

 
 
CAZ032-033-061-190200-  
SOUTHERN DESERTS  
 
 
CITY SKY/WX TMP DP RH WIND PRES REMARKS
 
BLYTHE CLEAR 74 40 29 SW21 29.73F  
IMPERIAL CLEAR 73 40 30 W20G26 29.76S  
PALM SPRINGS CLEAR 73 32 22 VRB5 29.75F  
THERMAL CLEAR 75 31 19 SE5 29.72F  
 

 
 
ELSEWHERE ACROSS THE WESTERN UNITED STATES AND MEXICO  
 
 
CITY SKY/WX TMP DP RH WIND PRES REMARKS
 
DEATH VALLEY, N/A 76 26 16 NW2 N/A  
DENVER, CO PTCLDY 54 14 20 SE5 29.43R  
GRAND CANYON, PTCLDY 45 24 43 SW26G43 29.75F  
HONOLULU, HI TSTM 73 64 73 NE14 29.95F  
KAHULUI, MAUI PTSUNNY 70 66 88 NE22G32 29.97R  
LAKE TAHOE, CA HVY SNOW 25 20 81 S8G23 29.63R VSB 1/4 WCI 16  
LAS VEGAS, NV PTCLDY 68 22 17 S17G31 29.56S  
MAMMOTH LAKES, FAIR 37 7 29 W23G37 29.63F WCI 25  
MEXICO CITY, M PTCLDY 68 41 37 S8 30.20R  
PHOENIX, AZ MOCLDY 71 40 32 SW10 29.79S  
PORTLAND, OR MOCLDY 39 35 86 SW5 29.74R  
RENO, NV CLOUDY 35 27 72 W12G20 29.63F WCI 27  
SALT LAKE CITY LGT SNOW 36 33 89 N12 29.54F FOG WCI 28  
SAN DIEGO, CA MOCLDY 61 51 70 SW9 29.94F  
SAN FRANCISCO, PTCLDY 50 36 58 W28G37 29.97F  
SAN JOSE, CA MOCLDY 53 35 50 W20 29.97S  
SEATTLE, WA PTCLDY 33 18 53 NW23G41 29.81R WCI 21  
TIJUANA, MEX CLEAR 61 48 63 W12 29.94F  
 

 
 
STATION/POSITION TIME TEMP WIND PRES VSBY WAVE
 
AIR SEA DIR/SP/G HT/PER  
(UTC) (F) (DEG/KT/KT) (MB) (MI) (FT/S)  
POINT ARGUELLO B NOT AVBL  
WEST SANTA BARBA 0050 55 320/ 23/ 29 1013.4F 8/ 8  
POINT CONCEPTION NOT AVBL  
EAST SANTA BARBA 0050 58 280/ 21/ 25 N/A 6/ 6  
SANTA MONICA BAY 0050 280/ 10/ 12 1012.0F 2/14  
 
CLICK HERE TO GO TO PREVIOUS BULLETINS.

The Nexlab CA Page Main Text Page